Погода в Яблоновском

Россия / Республика Адыгея     44°59′21″N   38°56′32″E
темп.,
°C
ветер,
м/с
пор.,
м/с
влажн.,
%
обл.,
%
осадки,
мм/ч
давл.,
гПа
погр.,
м
11 апреля, вс
вс1100:00+5св2797100 6.3 1021350
03:00+5с259772 7.2 1020211
06:00+6ссв2695100 0.0 1020267
09:00+7св3791100 0.0 1020391
12:00+8в3688100 0.0 1019582
15:00+10всв3485100 0.0 1019641
18:00+8св3696100 1.8 1018432
21:00+8св2596100 4.9 1019215
12 апреля, пн
пн1200:00+8ююз1196100 0.1 101933
03:00+8юз2795100 0.3 1019326
06:00+8юз3692100 0.0 1020231
09:00+10юз488281 0.0 1021773
12:00+13юз5765100 0.0 10201076
15:00+12юз3670100 0.5 1021900
18:00+12юз2474100 0.1 1021589
21:00+10ююз258189 0.1 1022185
13 апреля, вт
вт1300:00+9юз2587100 0.2 1022262
03:00+9юз1393100 1.0 1023173
06:00+8ююз2794100 2.4 1023426
09:00+9ю2488100 3.0 1023304
12:00+13юз3366100 0.0 10221172
15:00+13зсз1163100 0.1 1022862
18:00+12ссв0175100 0.1 102221
21:00+11ю1180100 0.1 102213
14 апреля, ср
ср1400:00+10зсз118599 0.0 102114
03:00+8сз229366 0.0 102046
06:00+8зсз1295100 0.0 102053
09:00+11зюз1183100 0.0 1020338
12:00+14юз2369100 0.1 1019936
15:00+16юз235488 0.4 10181569
18:00+15ю125933 0.1 1017102
21:00+10юв23826 0.1 101789
15 апреля, чт
чт1500:00+9ююв228858 0.0 101640
03:00+8ююв23905 0.0 101661
06:00+8юв24885 0.0 101681
09:00+11вюв247696 0.0 1015194
12:00+14св2265100 0.1 1015354
15:00+15всв23705 1.1 1015592
18:00+16ю266698 0.0 1014245
21:00+12ююз1277100 0.0 101523